FENGYUN 1C DEB, 31069

Orbit data source: Space-Track

FENGYUN 1C DEB, 31069 is space debris in SSO originally from a launch on Mon, 10 May 1999 UTC launched from the Taiyaun Space Center, China (TSC). Fengyun 1C debris stems from the Chinese weather satellite Fengyun-1C, which was intentionally destroyed by a Chinese anti-satellite missile in 2007. This event dramatically increased the amount of space debris, with thousands of trackable fragments posing hazards to satellites and human spaceflight. The Fengyun 1C debris cloud has become a focal point in discussions about space sustainability and the need for international regulations to prevent the creation of new debris.

Loading next visibility...
Identifier
31069, 1999-025BFP
Orbit
SSO
Country
Flag of CNCN / PRC
Related business
Manufacturer
Unknown
Mission
Spacecraft
Bus & Motor
Unknown
Mass
Unknown
Launch date (UTC)
1999-05-10 (27 years ago)
Launch vehicle
Unknown
Launch site
Taiyaun Space Center, China (TSC)
Object type
Payload
Rocket body
Debris
Shape & HBR
Unknown shape, 0.1 m
Radar Cross Section
Small (<0.1 m²)

Expand to show TLE details & history
Last TLE update: 1 day ago

TLE from 1 day ago
0 FENGYUN 1C DEB
1 31069U 99025BFP 26235.24293463  .00001739  00000-0  35841-3 0  9999
2 31069  99.1153  64.5675 0101760  30.2241 330.4772 14.58790353 23768
Epoch: 2026-08-23T05:49Z
TLE epoch observation values (Epoch: 2026-08-23T05:49:49.552Z)
Latitude
-0.00002°
Longitude
5.56924°
Altitude
637.555 km
Speed
7.573 km/s
True Right ascension
04h 18m 16s
True Declination
0° 00' 00"
Sunlit
Object was in daylight at epoch
Visualization orbit readout
Latitude
Unknown
Longitude
Unknown
Altitude
Unknown
Speed
Unknown
Apparent Right ascension
Unknown
Apparent Declination
Unknown
Sunlit
N/A
Visualization observer readout
Local Sidereal Time
01:58:07
Azimuth
Unknown
Elevation
Unknown
Doppler factor
Unknown
Orbital elements
Apogee altitude
766.177 km
Perigee altitude
622.241 km
Semi-major axis
7,072.346 km
Eccentricity
0.01018
Inclination
99.1153°
RAAN
64.5675°
Arg. of periapsis
30.2241°
True anomaly
329.89617°
Mean anomaly
330.4772°
Eccentric anomaly
330.18733°
Mean motion
3.6492 °/min
Orbital period
98.65 mins
BSTAR
0.00035841
Loading maneuver chart data...
Computing Atmospheric mass density...

Documentation

Showing up to 5 results
|